Location: Baema
(6.8084°N, 10.8718°W)
Time: 08:48:49
(UTC+00:00)

Daily predictions for brighter satellites

Satellite Brightness Start Highest point End
(mag) Time Altitude Azimuth Time Altitude Azimuth Time Altitude Azimuth
USA 267 4.4 18:36:11 10° SSE 18:42:27 49° SW 18:48:42 10° NW
GPS 2-12 Rocket1 3.6 18:39:33 10° NW 18:43:43 40° NNE 18:47:53 10° E
Cosmos 1697 Rocket 4.1 18:39:35 10° SW 18:44:48 41° WNW 18:50:02 10° N
Cosmos 1892 4.1 18:43:09 10° NE 18:45:52 18° E 18:48:35 10° SE
USA 276 4.2 18:49:33 10° WNW 18:52:24 31° SW 18:55:16 10° S
Cosmos 2227 Rocket 3.6 18:49:18 10° NE 18:52:29 15° ENE 18:55:39 10° ESE
Cosmos 1812 Rocket 3.7 18:49:10 10° S 18:53:31 54° E 18:57:47 10° NNE
Okean O Rocket 2.5 18:50:27 10° S 18:54:44 54° WSW 18:59:00 10° NNW
S3M 3.9 18:48:41 10° S 18:54:48 82° E 19:00:53 10° N
CZ-4 R/B 2.9 18:53:02 10° ESE 18:55:13 14° ENE 18:57:23 10° NE
COSMO-SKYMED 1 4.0 18:51:21 10° N 18:55:25 41° WNW 18:59:30 10° SSW
NOAA 11 4.2 18:51:17 10° SSE 18:56:42 68° ENE 19:02:06 10° N
Meteor 2-1 Rocket 4.3 18:53:12 10° S 18:58:47 82° W 19:04:17 10° N
Hubble Space Telescope 0.8 18:59:39 10° NW 19:03:43 63° NNE 19:07:30 12° ESE
Cosmos 1980 Rocket 3.0 19:02:55 10° SSW 19:08:26 54° WNW 19:13:54 10° N
Cosmos 1315 Rocket 4.2 19:07:26 10° SSW 19:11:08 41° W 19:14:50 10° NNW
Cosmos 1340 2.5 19:08:33 10° N 19:12:19 79° E 19:16:04 10° S
ATLAS 3B CENTAUR R/B 4.3 19:09:26 10° S 19:12:50 16° SE 19:16:34 12° ESE
CZ-2C R/B 4.1 19:08:09 10° SE 19:13:03 29° ENE 19:17:56 10° NNE
GPS 2-14 Rocket1 3.5 19:13:39 10° NW 19:17:32 38° NNE 19:19:24 24° ENE
SWIFT 2.4 19:14:37 10° WNW 19:18:50 59° NNE 19:21:10 25° E
Cosmos 1346 Rocket 3.2 19:17:21 10° NNE 19:21:03 37° E 19:24:45 10° SSE
Cosmos 1455 4.2 19:18:54 10° SSW 19:22:13 30° W 19:25:33 10° NNW
Cosmos 2058 3.1 19:18:40 10° NNE 19:22:35 44° E 19:26:30 10° SSE
ARIANE DEB (SPELDA) 3.9 19:26:00 10° WSW 19:29:37 61° SSE 19:38:50 20° E
Cosmos 2297 Rocket 2.2 19:26:26 10° N 19:31:56 55° ENE 19:37:25 10° SSE
Okean-O 2.6 19:27:44 10° SSE 19:32:04 57° ENE 19:36:24 10° N
H-2A R/B 3.2 19:28:47 10° SE 19:37:11 13° NNE 19:37:50 10° NNE
In-Cosmos 22 Rocket 4.5 19:28:00 10° NNW 19:33:29 71° W 19:39:08 10° S
GPS 2-17 Rocket1 4.4 19:30:38 10° SSW 19:34:21 24° SSE 19:35:37 21° SE
EO 1 Delta rocket 3.9 19:30:23 10° NNE 19:35:00 61° E 19:40:19 10° S
Timation 2 Rocket 4.3 19:30:33 10° NNW 19:37:23 80° WSW 19:44:15 10° SSE
Cosmos 2322 Rocket 2.4 19:36:10 10° S 19:41:36 48° ESE 19:43:23 36° ENE
CZ-2C R/B 1.7 19:37:39 10° WSW 19:41:54 58° NW 19:43:09 39° NNE
Elektron 3 3.8 19:44:53 10° NNW 19:53:29 - SSE 19:47:42 81° W
ARIANE 44L R/B 4.3 19:47:27 10° S 19:47:35 10° S 19:47:35 10° S
Cosmos 972 Rocket 4.5 19:48:19 10° S 19:52:11 40° SE 19:52:11 40° SE
Ariane H10-3 3.9 19:23:21 10° W 19:58:06 60° SSW 20:00:53 32° SE
BREEZE-M R/B 3.7 19:54:48 10° SSW 19:58:04 39° SE 19:58:04 39° SE
Cosmos 1408 4.1 20:00:33 10° NNW 20:03:57 36° W 20:07:23 10° SSW
ARIANE 5 R/B 3.8 19:52:46 10° WSW 20:04:48 31° SSW 20:06:14 26° SSE
Cosmos 2219 3.8 19:59:58 10° NNW 20:05:35 58° WSW 20:11:10 10° S
DELTA 2 R/B (1) 3.4 20:04:13 10° SW 20:09:45 81° SE 20:09:49 81° SE
CSL-04 Rocket 4.0 20:05:52 10° SSE 20:15:55 16° N 20:16:56 10° N
Cosmos 968 Rocket 4.1 20:10:58 10° NNW 20:15:57 54° WSW 20:20:55 10° S
CZ-2C R/B 3.0 20:15:04 35° NNW 20:17:10 62° WNW 20:22:20 10° SSW
SL-16 R/B 3.0 20:13:23 10° SSW 20:18:49 49° WNW 20:21:22 29° NNW
DMSP B5D2-2 4.1 20:19:37 75° W 20:19:37 75° W 20:24:40 10° SSW
ARIANE 3 DEB 4.4 20:13:19 10° WSW 20:20:11 39° S 20:20:11 39° S
Meteor 1-27 4.5 20:17:02 10° SSW 20:22:37 65° W 20:23:45 52° NNW
YAOGAN 1 4.2 20:19:38 10° SSW 20:23:31 33° W 20:27:24 10° NW
CZ-4 R/B 4.0 20:27:11 10° SW 20:29:59 18° W 20:32:44 10° NW
Cosmos 2227 Rocket 3.5 20:31:10 10° NW 20:36:19 37° WSW 20:41:29 10° S
Cosmos 2360 Rocket 3.5 20:35:18 10° SSW 20:38:07 31° SSW 20:38:07 31° SSW
ARIANE 5 R/B 3.0 20:32:55 10° W 20:40:39 49° W 20:40:39 49° W
Hubble Space Telescope 3.7 20:41:46 10° WSW 20:42:54 15° WSW 20:42:54 15° WSW
Ariane H10+ 4.1 20:56:54 10° WSW 21:03:23 52° S 21:04:09 52° SSE
H-2A R/B 4.5 21:08:47 10° SW 21:17:48 - NW 21:12:14 19° WSW
ATLAS 3B CENTAUR R/B 4.2 21:24:35 10° WSW 21:28:11 40° SW 21:28:11 40° SW
